www.pogodaiklimat.ru

Погода и климат >> Архив погоды >> Ирак >> Хелла


ПОГОДА в Хелле

  • Прогноз погоды в Хелле
  • Монитор погоды в Хелле

АРХИВ ПОГОДЫ в Хелле

Время (UTC), дата Ветер
(напр.,м/с)
 
Видим.   Явления Облачность Т
(С)
Тd
(С)
f
(%)
Тe
(С)
Тes
(С)
Комфортность P
(гПа)
Po
(гПа)
Тmin
(С)
Tmax
(С)
R
(мм)
R24
(мм)
S
(см)
09 12.02 С 2 10 км ясно +16.0 +8.0 59 +16 +27 1020.2 1016.9
12 12.02 СЗ 7 10 км 3/3 1050 м
[Cu hum]
+19.0 +7.1 46 +19 +20 1019.1 1015.9
15 12.02 С 2 10 км ясно +16.2 +5.5 49 +16 +16 1019.7 1016.5
18 12.02 штиль 0 10 км ясно +11.4 +4.3 62 +11 +11 1021.7 1018.4 +19.6
21 12.02 штиль 0 10 км ясно +9.2 +4.4 72 +9 +9 1022.7 1019.4
00 13.02 штиль 0 10 км ясно +8.0 +3.3 72 +7 +7 1022.4 1019.0
03 13.02 штиль 0 10 км ясно +6.4 +3.6 82 +6 +6 1023.2 1019.8
06 13.02 штиль 0 10 км 3/0
[Ci fib]
+9.0 +6.4 84 +8 +14 1024.4 1021.1 +5.8
09 13.02 штиль 0 10 км 4/0
[Ci fib]
+18.4 +5.2 42 +19 +32 опасность
простуды
1024.1 1020.9
12 13.02 штиль 0 10 км 4/0
[Ci sp]
+19.6 +4.1 36 +20 +26 1022.2 1019.0
15 13.02 штиль 0 10 км 4/0
[Ac trans]
+16.4 +7.1 54 +16 +16 1021.2 1018.0
18 13.02 штиль 0 10 км ясно +11.6 +6.5 71 +11 +11 1021.8 1018.5 +20.4
21 13.02 штиль 0 10 км ясно +8.6 +6.2 85 +8 +8 1021.3 1018.0
03 14.02 штиль 0 10 км ясно +6.4 +3.6 82 +6 +6 1023.2 1019.8
06 14.02 штиль 0 10 км 6/6 1050 м
[Sc]
+11.8 +5.8 67 +11 +14 1019.3 1016.0 +7.2
09 14.02 ЮВ 5 8000 м пыль 8/8 1050 м
[Cu Sc]
+16.9 +5.7 48 +16 +17 1016.4 1013.2
12 14.02 ЮВ 6 6000 м в посл. час ливневой дождь 9/9 1050 м
[Cu Sc]
+18.0 +5.4 43 +17 +18 1012.2 1009.0
15 14.02 ЮВ 6 8000 м пыль 4/4 1050 м
[Cu med, cong]
+17.6 +5.6 45 +17 +17 1012.5 1009.3
18 14.02 Ю 3 10 км ясно +15.3 +5.4 52 +15 +15 1013.6 1010.4 +21.0 0.0
21 14.02 ЮВ 5 10 км 8/8 1050 м
[Sc]
+14.8 +7.0 60 +13 +13 1012.8 1009.6
03 15.02 ЮВ 4 10 км в посл. час ливневой дождь 9/9 1050 м
[Cu Sc]
+12.8 +7.9 72 +11 +11 1011.7 1008.4
06 15.02 ЮВ 4 10 км {ливн. осадки} ясно +14.0 +7.9 67 +13 +16 1013.0 1009.8 +11.8 0.4
09 15.02 Ю 6 8000 м пыль 9/9 1050 м
[Cu Sc]
+17.6 +10.9 65 +17 +17 1011.2 1008.0
12 15.02 З 5 6000 м пыль 10/10 1050 м
[Cu Sc]
+19.0 +11.7 63 +20 +20 1009.6 1006.4
15 15.02 СЗ 12 6000 м пыльный позёмок 10/10 1050 м
[Cu Sc]
+15.2 +10.2 72 +13 +13 1010.5 1007.3
18 15.02 СЗ 2 10 км ясно +9.6 +4.6 71 +8 +8 1014.4 1011.1 +19.4
21 15.02 штиль 0 10 км ясно +7.6 +4.8 82 +7 +7 1015.7 1012.4
00 16.02 штиль 0 10 км ясно +6.6 +3.5 81 +6 +6 1016.5 1013.2
03 16.02 штиль 0 10 км ясно +6.0 +3.6 85 +5 +5 1017.5 1014.1
06 16.02 штиль 0 10 км ясно +9.2 +1.7 59 +9 +15 1020.2 1016.9 +5.2
09 16.02 СЗ 3 10 км ясно +15.6 +4.1 46 +15 +25 1020.5 1017.2
12 16.02 СЗ 5 10 км ясно +19.0 +1.1 30 +19 +22 1018.6 1015.4
15 16.02 штиль 0 10 км ясно +15.6 +4.1 46 +16 +16 1018.8 1015.5
18 16.02 штиль 0 10 км ясно +10.8 +5.6 70 +10 +10 1020.1 1016.8 +19.4
21 16.02 штиль 0 10 км ясно +9.4 +4.4 71 +9 +9 1019.8 1016.5
03 17.02 штиль 0 10 км 4/4 1050 м
[Sc]
+9.4 +4.4 71 +9 +9 1019.3 1016.0
06 17.02 штиль 0 10 км 3/0
[Ci sp]
+11.4 +6.3 71 +11 +17 1020.2 1016.9 +7.5
09 17.02 З 4 10 км ясно +18.8 +8.3 50 +19 +27 1020.4 1017.2
12 17.02 С 7 10 км 5/5 1050 м
[Cu med, cong]
+20.0 +5.9 40 +20 +21 1018.4 1015.2
15 17.02 СЗ 2 10 км ясно +16.6 +6.4 51 +17 +17 1017.7 1014.5
18 17.02 штиль 0 10 км ясно +12.6 +6.2 65 +12 +12 1019.0 1015.7 +20.6
21 17.02 штиль 0 10 км ясно +10.0 +6.5 79 +9 +9 1019.1 1015.8
09 18.02 СЗ 2 10 км 3/3 1050 м
[Cu hum]
+18.2 +7.5 50 +19 +27 1018.0 1014.8
12 18.02 СЗ 6 10 км 6/6 1050 м
[Cu med, cong]
+18.8 +5.2 41 +19 +19 1014.6 1011.4
15 18.02 штиль 0 10 км 3/3 1050 м
[Cu med, cong]
+15.3 +5.4 52 +15 +15 1014.1 1010.9
18 18.02 штиль 0 10 км ясно +10.8 +6.0 72 +10 +10 1015.2 1011.9 +19.6
00 19.02 штиль 0 10 км ясно +7.4 +5.6 88 +6 +6 1014.4 1011.1
03 19.02 штиль 0 10 км ясно +6.8 +4.5 85 +6 +6 1014.9 1011.6
06 19.02 штиль 0 10 км ясно +9.5 +5.7 77 +9 +16 1016.6 1013.3 +5.6

 

Местоположение метеостанции Хелла (Ирак): широта 32.45 долгота 44.45 высота над уровнем моря 27 м.

В архиве по умолчанию представлена погода в Хелле за последнюю неделю. Архивные данные за месяц целиком и за предыдущие месяцы, начиная с января 2011 года, Вы можете получить, выбрав интересующий диапазон дат из раскрывающегося списка и нажав кнопку "Ввод!".


*Определитесь, кто Вы:
робот инопланетянин человек

Внимание! Время в таблицах - всемирное. Для получения местного времени необходимо прибавить поправку, которая равна 3 ч.

Смотрите также архив погоды в соседних городах и на ближайших метеорологических станциях:

Погода в Кербеле (Ирак) (45 км)
Погода в Наджафе (Ирак) (54 км)
Погода в Дивании (Ирак) (72 км)
Погода в Эль-Азизии (Ирак) (78 км)
Погода в Багдаде (Ирак) (89 км)
Погода в Убайда Бин Аль Джарра (Ирак) (122 км)
Погода в Айн Аль-Тамаре (Ирак) (125 км)
Погода в Хите (Ирак) (147 км)
Погода в Эс-Самаве (Ирак) (150 км)
Погода в Рамади (Ирак) (153 км)

Пояснения к столбцам:

Ветер - указаны скорость ветра в м/с - средняя за 10 мин, порывы в срок и между сроками (в фигурных скобках) и направление, откуда дует ветер: С - северный, СВ - северо-восточный, В - восточный, ЮВ - юго-восточный, Ю - южный, ЮЗ - юго-западный, З - западный, СЗ - северо-западный.
Видимость - горизонтальная дальность видимости в метрах или километрах. При видимости от 1 до 10 км при отсутствии осадков обычно наблюдается дымка, при ухудшении видимости до 1 км и менее - туман. В сухую погоду видимость может ухудшаться дымом, пылью или мглою.
Явления - указаны атмосферные явления, наблюдавшиеся в срок или в последний час перед сроком; фигурными скобками обозначены явления, наблюдавшиеся между сроками (за 1-3 часа до срока); квадратными скобками обозначены град или гололедные отложения с указанием их диаметра в мм.
Облачность - указаны через наклонную черту общая и нижняя облачность в баллах и высота нижней границы облаков в метрах; квадратными скобками обозначены формы облаков: Ci - перистые, Cs - перисто-слоистые, Cc - перисто-кучевые, Ac - высококучевые, As - высокослоистые, Sc - слоисто-кучевые, Ns - слоисто-дождевые, Cu - кучевые, Cb - кучево-дождевые. Подробнее классификацию облаков см. в Атласе облаков (PDF).
T - Температура воздуха - температура, измеренная на высоте 2 м над землей.
Td - Температура точки росы - температура, при понижении до которой содержащийся в воздухе водяной пар достигнет насыщения.
f - Относительная влажность воздуха - влажноcть воздуха, измеренная на высоте 2 м над землей.
Te - Эффективная температура - температура, которую ощущает одетый по сезону человек в тени. Характеристика душности погоды. При расчете учитывается влияние влажности воздуха и скорости ветра на теплоощущения человека.
Tes - Эффективная температура на солнце - температура, которую ощущает человек, с поправкой на солнечный нагрев. Характеристика знойности погоды. Зависит от высоты солнца над горизонтом, облачности и скорости ветра. Ночью, в пасмурную погоду, а также при ветре 12 м/с и более поправка равна нулю.
P - Атмосферное давление - приведенное к уровню моря атмосферное давление.
Po - Атмосферное давление - измеренное на уровне метеостанции атмосферное давление.
Tmin - Минимальная температура - минимум температуры воздуха на высоте 2 м над землей.
Tmax - Максимальная температура - максимум температуры воздуха на высоте 2 м над землей.
R - Количество осадков - Количество выпавших осадков за период времени, мм. При наведении курсора мыши на число - период времени, за который выпало указанное количество осадков.
R24 - Количество осадков - Количество выпавших осадков за 24 часа, мм.
S - Снежный покров - Высота снежного покрова, см. При наведении курсора мыши на число - состояние снежного покрова и степень покрытия местности в баллах.